Time,TemperatureF,DewpointF,PressureIn,WindDirection,WindDirectionDegrees,WindSpeedMPH,WindSpeedGustMPH,Humidity,HourlyPrecipIn,Conditions,Clouds,dailyrainin,SoftwareType,DateUTC
2013-02-03 00:10:00,45.1,44.0,30.25,NNW,336,0.0,1.0,94,0.00,,,0.00,weatherlink.com 1.10,2013-02-03 08:10:00,
2013-02-03 00:25:00,45.9,44.0,30.25,NW,314,0.0,5.0,93,0.00,,,0.00,weatherlink.com 1.10,2013-02-03 08:25:00,
2013-02-03 00:40:00,46.8,44.0,30.25,West,267,3.0,5.0,89,0.00,,,0.00,weatherlink.com 1.10,2013-02-03 08:40:00,
2013-02-03 00:55:00,47.1,44.0,30.24,West,259,0.0,3.0,87,0.00,,,0.00,weatherlink.com 1.10,2013-02-03 08:55:00,
2013-02-03 01:10:00,47.0,43.0,30.24,WSW,254,2.0,4.0,86,0.00,,,0.00,weatherlink.com 1.10,2013-02-03 09:10:00,
2013-02-03 01:25:00,46.9,43.0,30.24,West,263,3.0,6.0,86,0.00,,,0.00,weatherlink.com 1.10,2013-02-03 09:25:00,
2013-02-03 01:40:00,47.6,43.0,30.24,WSW,256,1.0,6.0,84,0.00,,,0.00,weatherlink.com 1.10,2013-02-03 09:40:00,
2013-02-03 01:55:00,47.8,43.0,30.24,West,272,3.0,5.0,83,0.00,,,0.00,weatherlink.com 1.10,2013-02-03 09:55:00,
2013-02-03 02:10:00,47.7,43.0,30.24,NW,305,0.0,6.0,83,0.00,,,0.00,weatherlink.com 1.10,2013-02-03 10:10:00,
2013-02-03 02:25:00,48.0,43.0,30.24,WSW,239,5.0,8.0,82,0.00,,,0.00,weatherlink.com 1.10,2013-02-03 10:25:00,
2013-02-03 02:40:00,48.0,43.0,30.24,West,274,1.0,5.0,82,0.00,,,0.00,weatherlink.com 1.10,2013-02-03 10:40:00,
2013-02-03 02:55:00,48.0,43.0,30.24,West,273,0.0,8.0,82,0.00,,,0.00,weatherlink.com 1.10,2013-02-03 10:55:00,
2013-02-03 03:10:00,47.8,43.0,30.24,West,279,6.0,6.0,83,0.00,,,0.00,weatherlink.com 1.10,2013-02-03 11:10:00,
2013-02-03 03:26:00,47.8,43.0,30.24,West,262,4.0,6.0,83,0.00,,,0.00,weatherlink.com 1.10,2013-02-03 11:26:00,
2013-02-03 03:41:00,47.7,43.0,30.24,WSW,253,4.0,5.0,83,0.00,,,0.00,weatherlink.com 1.10,2013-02-03 11:41:00,
2013-02-03 03:56:00,47.7,43.0,30.23,West,269,3.0,6.0,84,0.00,,,0.00,weatherlink.com 1.10,2013-02-03 11:56:00,
2013-02-03 04:11:00,47.5,43.0,30.23,WSW,258,2.0,7.0,84,0.00,,,0.00,weatherlink.com 1.10,2013-02-03 12:11:00,
2013-02-03 04:26:00,47.2,43.0,30.23,West,271,0.0,4.0,84,0.00,,,0.00,weatherlink.com 1.10,2013-02-03 12:26:00,
2013-02-03 04:41:00,46.6,42.0,30.23,West,270,0.0,2.0,85,0.00,,,0.00,weatherlink.com 1.10,2013-02-03 12:41:00,
2013-02-03 04:56:00,46.2,43.0,30.23,West,270,0.0,2.0,87,0.00,,,0.00,weatherlink.com 1.10,2013-02-03 12:56:00,
2013-02-03 05:11:00,45.9,42.0,30.23,West,270,0.0,2.0,87,0.00,,,0.00,weatherlink.com 1.10,2013-02-03 13:11:00,
2013-02-03 05:26:00,45.7,42.0,30.23,West,270,0.0,1.0,88,0.00,,,0.00,weatherlink.com 1.10,2013-02-03 13:26:00,
2013-02-03 05:41:00,45.6,43.0,30.23,West,270,0.0,1.0,89,0.00,,,0.00,weatherlink.com 1.10,2013-02-03 13:41:00,
2013-02-03 05:56:00,45.9,43.0,30.23,West,270,0.0,0.0,89,0.00,,,0.00,weatherlink.com 1.10,2013-02-03 13:56:00,
2013-02-03 06:11:00,46.4,43.0,30.23,West,270,0.0,2.0,88,0.00,,,0.00,weatherlink.com 1.10,2013-02-03 14:11:00,
2013-02-03 06:26:00,47.2,43.0,30.24,West,259,0.0,4.0,84,0.00,,,0.00,weatherlink.com 1.10,2013-02-03 14:26:00,
2013-02-03 06:41:00,48.5,42.0,30.24,WNW,298,2.0,10.0,78,0.00,,,0.00,weatherlink.com 1.10,2013-02-03 14:41:00,
2013-02-03 06:56:00,48.9,42.0,30.24,WSW,254,1.0,5.0,77,0.00,,,0.00,weatherlink.com 1.10,2013-02-03 14:56:00,
2013-02-03 07:11:00,48.8,42.0,30.24,West,269,1.0,7.0,76,0.00,,,0.00,weatherlink.com 1.10,2013-02-03 15:11:00,
2013-02-03 07:26:00,48.6,42.0,30.24,West,268,2.0,6.0,77,0.00,,,0.00,weatherlink.com 1.10,2013-02-03 15:26:00,
2013-02-03 07:41:00,48.2,41.0,30.23,WSW,249,1.0,5.0,77,0.00,,,0.00,weatherlink.com 1.10,2013-02-03 15:41:00,
2013-02-03 07:56:00,47.9,42.0,30.23,WSW,249,0.0,1.0,79,0.00,,,0.00,weatherlink.com 1.10,2013-02-03 15:56:00,
2013-02-03 08:11:00,48.6,42.0,30.24,WSW,249,0.0,1.0,79,0.00,,,0.00,weatherlink.com 1.10,2013-02-03 16:11:00,
2013-02-03 08:26:00,50.1,42.0,30.24,WSW,249,1.0,2.0,75,0.00,,,0.00,weatherlink.com 1.10,2013-02-03 16:26:00,
2013-02-03 08:41:00,50.8,42.0,30.24,West,279,1.0,3.0,73,0.00,,,0.00,weatherlink.com 1.10,2013-02-03 16:41:00,
2013-02-03 08:56:00,51.4,43.0,30.25,NW,315,2.0,5.0,72,0.00,,,0.00,weatherlink.com 1.10,2013-02-03 16:56:00,
2013-02-03 09:11:00,51.7,43.0,30.25,WSW,237,1.0,7.0,71,0.00,,,0.00,weatherlink.com 1.10,2013-02-03 17:11:00,
2013-02-03 09:26:00,51.6,43.0,30.25,WNW,283,3.0,5.0,72,0.00,,,0.00,weatherlink.com 1.10,2013-02-03 17:26:00,
2013-02-03 09:41:00,52.4,43.0,30.24,West,270,2.0,4.0,71,0.00,,,0.00,weatherlink.com 1.10,2013-02-03 17:41:00,
2013-02-03 09:56:00,52.9,43.0,30.24,West,259,4.0,8.0,70,0.00,,,0.00,weatherlink.com 1.10,2013-02-03 17:56:00,
2013-02-03 10:11:00,53.2,43.0,30.25,WSW,248,3.0,7.0,68,0.00,,,0.00,weatherlink.com 1.10,2013-02-03 18:11:00,
2013-02-03 10:26:00,53.6,43.0,30.24,South,183,2.0,7.0,67,0.00,,,0.00,weatherlink.com 1.10,2013-02-03 18:26:00,
2013-02-03 10:41:00,54.1,43.0,30.24,West,265,1.0,6.0,66,0.00,,,0.00,weatherlink.com 1.10,2013-02-03 18:41:00,
2013-02-03 10:56:00,55.1,43.0,30.24,WSW,253,0.0,6.0,64,0.00,,,0.00,weatherlink.com 1.10,2013-02-03 18:56:00,
2013-02-03 11:11:00,55.5,43.0,30.24,North,355,0.0,7.0,63,0.00,,,0.00,weatherlink.com 1.10,2013-02-03 19:11:00,
2013-02-03 11:26:00,56.2,43.0,30.23,North,355,3.0,7.0,61,0.00,,,0.00,weatherlink.com 1.10,2013-02-03 19:26:00,
2013-02-03 11:41:00,56.1,43.0,30.21,NNW,338,2.0,6.0,62,0.00,,,0.00,weatherlink.com 1.10,2013-02-03 19:41:00,
2013-02-03 11:56:00,55.3,44.0,30.20,ENE,61,7.0,7.0,65,0.00,,,0.00,weatherlink.com 1.10,2013-02-03 19:56:00,
2013-02-03 12:11:00,55.2,44.0,30.19,ENE,63,3.0,7.0,65,0.00,,,0.00,weatherlink.com 1.10,2013-02-03 20:11:00,
2013-02-03 12:26:00,55.5,44.0,30.19,North,355,2.0,8.0,65,0.00,,,0.00,weatherlink.com 1.10,2013-02-03 20:26:00,
2013-02-03 12:41:00,56.5,44.0,30.18,NE,37,4.0,7.0,63,0.00,,,0.00,weatherlink.com 1.10,2013-02-03 20:41:00,
2013-02-03 12:57:00,56.1,44.0,30.18,ESE,103,5.0,7.0,65,0.00,,,0.00,weatherlink.com 1.10,2013-02-03 20:57:00,
2013-02-03 13:12:00,56.6,44.0,30.17,NE,38,5.0,5.0,64,0.00,,,0.00,weatherlink.com 1.10,2013-02-03 21:12:00,
2013-02-03 13:27:00,57.0,44.0,30.17,ENE,76,2.0,6.0,63,0.00,,,0.00,weatherlink.com 1.10,2013-02-03 21:27:00,
2013-02-03 13:42:00,57.0,44.0,30.16,NNE,32,5.0,9.0,63,0.00,,,0.00,weatherlink.com 1.10,2013-02-03 21:42:00,
2013-02-03 13:57:00,56.9,44.0,30.16,WNW,302,5.0,10.0,63,0.00,,,0.00,weatherlink.com 1.10,2013-02-03 21:57:00,
2013-02-03 14:12:00,57.7,45.0,30.16,North,355,3.0,8.0,63,0.00,,,0.00,weatherlink.com 1.10,2013-02-03 22:12:00,
2013-02-03 14:27:00,57.5,45.0,30.15,NNW,331,4.0,10.0,64,0.00,,,0.00,weatherlink.com 1.10,2013-02-03 22:27:00,
2013-02-03 14:42:00,57.8,46.0,30.15,NNE,30,3.0,7.0,65,0.00,,,0.00,weatherlink.com 1.10,2013-02-03 22:42:00,
2013-02-03 14:57:00,57.9,45.0,30.14,North,360,1.0,10.0,63,0.00,,,0.00,weatherlink.com 1.10,2013-02-03 22:57:00,
2013-02-03 15:12:00,57.7,45.0,30.14,North,355,4.0,8.0,63,0.00,,,0.00,weatherlink.com 1.10,2013-02-03 23:12:00,
2013-02-03 15:27:00,57.9,46.0,30.14,WNW,298,1.0,8.0,64,0.00,,,0.00,weatherlink.com 1.10,2013-02-03 23:27:00,
2013-02-03 15:42:00,57.5,45.0,30.14,NNW,342,3.0,8.0,63,0.00,,,0.00,weatherlink.com 1.10,2013-02-03 23:42:00,
2013-02-03 15:57:00,57.2,45.0,30.14,NNE,15,5.0,8.0,64,0.00,,,0.00,weatherlink.com 1.10,2013-02-03 23:57:00,
2013-02-03 16:12:00,56.9,45.0,30.13,NNW,338,2.0,6.0,65,0.00,,,0.00,weatherlink.com 1.10,2013-02-04 00:12:00,
2013-02-03 16:27:00,56.9,45.0,30.13,NW,320,4.0,5.0,64,0.00,,,0.00,weatherlink.com 1.10,2013-02-04 00:27:00,
2013-02-03 16:42:00,56.8,45.0,30.13,NNW,342,3.0,6.0,65,0.00,,,0.00,weatherlink.com 1.10,2013-02-04 00:42:00,
2013-02-03 16:57:00,56.2,45.0,30.13,NNW,336,1.0,4.0,67,0.00,,,0.00,weatherlink.com 1.10,2013-02-04 00:57:00,
2013-02-03 17:12:00,55.5,45.0,30.14,NNW,337,0.0,4.0,69,0.00,,,0.00,weatherlink.com 1.10,2013-02-04 01:12:00,
2013-02-03 17:27:00,54.6,45.0,30.14,NNW,328,0.0,2.0,71,0.00,,,0.00,weatherlink.com 1.10,2013-02-04 01:27:00,
2013-02-03 17:42:00,53.7,45.0,30.14,NNW,328,1.0,2.0,73,0.00,,,0.00,weatherlink.com 1.10,2013-02-04 01:42:00,
2013-02-03 17:57:00,52.7,45.0,30.14,North,5,0.0,1.0,75,0.00,,,0.00,weatherlink.com 1.10,2013-02-04 01:57:00,
2013-02-03 18:12:00,51.8,45.0,30.15,North,5,0.0,0.0,77,0.00,,,0.00,weatherlink.com 1.10,2013-02-04 02:12:00,
2013-02-03 18:27:00,50.8,45.0,30.14,North,5,0.0,1.0,79,0.00,,,0.00,weatherlink.com 1.10,2013-02-04 02:27:00,
2013-02-03 18:42:00,50.1,44.0,30.14,North,5,0.0,2.0,80,0.00,,,0.00,weatherlink.com 1.10,2013-02-04 02:42:00,
2013-02-03 18:57:00,49.1,44.0,30.15,North,5,0.0,0.0,82,0.00,,,0.00,weatherlink.com 1.10,2013-02-04 02:57:00,
2013-02-03 19:12:00,48.1,43.0,30.15,North,5,0.0,0.0,83,0.00,,,0.00,weatherlink.com 1.10,2013-02-04 03:12:00,
2013-02-03 19:27:00,47.4,43.0,30.15,North,5,0.0,1.0,85,0.00,,,0.00,weatherlink.com 1.10,2013-02-04 03:27:00,
2013-02-03 19:42:00,46.8,43.0,30.15,North,5,0.0,0.0,86,0.00,,,0.00,weatherlink.com 1.10,2013-02-04 03:42:00,
2013-02-03 19:57:00,46.2,43.0,30.16,North,5,0.0,0.0,87,0.00,,,0.00,weatherlink.com 1.10,2013-02-04 03:57:00,
2013-02-03 20:12:00,45.8,43.0,30.16,North,5,0.0,0.0,88,0.00,,,0.00,weatherlink.com 1.10,2013-02-04 04:12:00,
2013-02-03 20:27:00,45.4,42.0,30.16,North,5,0.0,0.0,88,0.00,,,0.00,weatherlink.com 1.10,2013-02-04 04:27:00,
2013-02-03 20:42:00,45.0,42.0,30.16,North,5,0.0,0.0,89,0.00,,,0.00,weatherlink.com 1.10,2013-02-04 04:42:00,
2013-02-03 20:57:00,44.7,42.0,30.16,North,5,0.0,0.0,90,0.00,,,0.00,weatherlink.com 1.10,2013-02-04 04:57:00,
2013-02-03 21:12:00,44.5,42.0,30.15,North,5,1.0,1.0,90,0.00,,,0.00,weatherlink.com 1.10,2013-02-04 05:12:00,
2013-02-03 21:27:00,44.5,42.0,30.15,North,5,0.0,1.0,90,0.00,,,0.00,weatherlink.com 1.10,2013-02-04 05:27:00,
2013-02-03 21:42:00,44.2,42.0,30.16,North,5,0.0,1.0,90,0.00,,,0.00,weatherlink.com 1.10,2013-02-04 05:42:00,
2013-02-03 21:57:00,44.0,41.0,30.16,North,5,0.0,1.0,90,0.00,,,0.00,weatherlink.com 1.10,2013-02-04 05:57:00,
2013-02-03 22:12:00,43.5,41.0,30.15,North,5,0.0,2.0,90,0.00,,,0.00,weatherlink.com 1.10,2013-02-04 06:12:00,
2013-02-03 22:27:00,43.1,41.0,30.16,North,5,0.0,0.0,91,0.00,,,0.00,weatherlink.com 1.10,2013-02-04 06:27:00,
2013-02-03 22:42:00,43.0,41.0,30.16,North,5,0.0,1.0,92,0.00,,,0.00,weatherlink.com 1.10,2013-02-04 06:42:00,
2013-02-03 22:57:00,42.6,41.0,30.16,North,5,0.0,0.0,92,0.00,,,0.00,weatherlink.com 1.10,2013-02-04 06:57:00,
2013-02-03 23:12:00,42.2,40.0,30.16,North,5,0.0,1.0,92,0.00,,,0.00,weatherlink.com 1.10,2013-02-04 07:12:00,
2013-02-03 23:27:00,42.0,40.0,30.16,North,5,0.0,0.0,92,0.00,,,0.00,weatherlink.com 1.10,2013-02-04 07:27:00,
2013-02-03 23:42:00,41.8,40.0,30.16,North,5,0.0,1.0,93,0.00,,,0.00,weatherlink.com 1.10,2013-02-04 07:42:00,
2013-02-03 23:57:00,41.9,40.0,30.16,North,5,0.0,2.0,93,0.00,,,0.00,weatherlink.com 1.10,2013-02-04 07:57:00,